This is the latest recevied weather packets stored in our database for station/object ZL3GL-4. If no packets are shown the sender has not sent any weather packets the latest 1 day(s).
| Time | Temp. | Humidity | Pressure | Rain* | Wind** | Luminosity | Snow |
|---|---|---|---|---|---|---|---|
| 1836274544 | 13.33° C | 59% | 1012.4 hPa | 0 mm | 0.45 m/s, 243° | - | - |
| 1836274452 | 12.78° C | 64% | 1012.5 hPa | 0 mm | 0.89 m/s, 288° | - | - |
| 1778069169 | 9.44° C | 100% | 1018.2 hPa | 0 mm | 1.34 m/s, 278° | - | - |
| 1778068326 | 10° C | 99% | 1018.4 hPa | 0 mm | 0 m/s | - | - |
| 1778067482 | 10° C | 99% | 1018.5 hPa | 0 mm | 0 m/s | - | - |
| 1778066637 | 10° C | 99% | 1018.8 hPa | 0 mm | 1.34 m/s, 342° | - | - |
| 1778065797 | 10° C | 100% | 1018.9 hPa | 0 mm | 0.45 m/s, 274° | - | - |
| 1778064950 | 10° C | 100% | 1019.1 hPa | 0 mm | 0 m/s | - | - |
| 1778064106 | 10.56° C | 99% | 1019.1 hPa | 0 mm | 0 m/s | - | - |
| 1778063263 | 10.56° C | 99% | 1019.4 hPa | 0 mm | 0.45 m/s, 20° | - | - |
| 1778062418 | 10.56° C | 100% | 1019.5 hPa | 0 mm | 0 m/s | - | - |
| 1778061574 | 10° C | 100% | 1019.5 hPa | 0 mm | 0.89 m/s, 200° | - | - |
| 1778060730 | 10° C | 100% | 1019.6 hPa | 0 mm | 0 m/s | - | - |
| 1778059886 | 10° C | 100% | 1019.7 hPa | 0 mm | 0 m/s | - | - |
| 1778059042 | 10° C | 100% | 1019.5 hPa | 0 mm | 0.89 m/s, 274° | - | - |
| 1778058197 | 10° C | 100% | 1019.6 hPa | 0 mm | 0.45 m/s, 322° | - | - |
| 1778057353 | 10.56° C | 100% | 1019.8 hPa | 0 mm | 1.34 m/s, 347° | - | - |
| 1778056509 | 10.56° C | 99% | 1019.9 hPa | 0 mm | 1.34 m/s, 23° | - | - |
| 1778055668 | 10.56° C | 98% | 1019.9 hPa | 0 mm | 0.45 m/s, 264° | - | - |
| 1778054823 | 10.56° C | 99% | 1019.9 hPa | 0 mm | 0.45 m/s, 277° | - | - |
| 1778053978 | 10.56° C | 100% | 1020.3 hPa | 0 mm | 0.89 m/s, 311° | - | - |
| 1778053135 | 10.56° C | 100% | 1020.4 hPa | 0 mm | 1.34 m/s, 295° | - | - |
| 1778052292 | 10.56° C | 100% | 1020.5 hPa | 0 mm | 1.34 m/s, 284° | - | - |
| 1778051448 | 10.56° C | 100% | 1020.6 hPa | 0 mm | 0.89 m/s, 285° | - | - |
| 1778050602 | 10.56° C | 100% | 1020.8 hPa | 0 mm | 0.89 m/s, 300° | - | - |
* Rain latest hour (hover to see other rain measurements)
** Current wind speed in m/s (hover to see current wind gust speed)